, MO

(GMT )
Kansas City

Weather History for KMKC - April, 2013

Change the Weather History Date:

Tuesday, April 23, 2013

  Actual Average Record
Temperature  
Mean Temperature 42 °F -  
Max Temperature 46 °F 65 °F 81 °F (2009)
Min Temperature 35 °F 47 °F 35 °F (2013)
Degree Days  
Heating Degree Days 22    
Moisture  
Dew Point 33 °F    
Average Humidity 83    
Maximum Humidity 89    
Minimum Humidity 70    
Precipitation  
Precipitation 0.54 in - - ()
Sea Level Pressure  
Sea Level Pressure 30.10 in    
Wind  
Wind Speed 12 mph (North)    
Max Wind Speed 17 mph    
Max Gust Speed 31 mph    
Visibility 7 miles    
Events Rain    
Averages and records for this station are not official NWS values.
T = Trace of Precipitation, MM = Missing Value Source: NWS Daily Summary

Daily Weather History Graph

Daily Weather History Graph

Search for Another Location

Airport or City:

Trip Planner

Search our weather history database for the weather conditions in past years. The results will help you decide how hot, cold, wet, or windy it might be!

Date:

Astronomy

Apr. 23, 2013 Rise Set
Actual Time 6:30 AM CDT 8:03 PM CDT
Civil Twilight 6:01 AM CDT 8:32 PM CDT
Nautical Twilight 5:27 AM CDT 9:06 PM CDT
Astronomical Twilight 4:51 AM CDT 9:42 PM CDT
Moon 6:00 PM CDT (4/23) 4:57 AM CDT (4/23)
Length of Visible Light 14h 30m
Length of Day
13h 33m
Waxing Gibbous, 94% of the Moon is Illuminated
Apr 23
Waxing Gibbous
Apr 25
Full
May 2
Last Quarter
May 9
New
May 17
First Quarter

Hourly Weather History & Observations

Time (CDT) Temp. Windchill Dew Point Humidity Pressure Visibility Wind Dir Wind Speed Gust Speed Precip Events Conditions
12:01 AM 50.0 °F - 46.4 °F 87% 30.01 in 9.0 mi NNW 11.5 mph - N/A   Overcast
12:54 AM 46.0 °F 41.0 °F 42.1 °F 86% 30.04 in 5.0 mi NNW 10.4 mph 19.6 mph 0.01 in Rain Rain
1:22 AM 44.6 °F 37.2 °F 39.2 °F 81% 30.08 in 10.0 mi NNW 17.3 mph 31.1 mph 0.00 in   Overcast
1:54 AM 43.0 °F 37.7 °F 37.9 °F 82% 30.01 in 10.0 mi North 9.2 mph - 0.00 in Rain Light Rain
2:54 AM 41.0 °F 34.7 °F 36.0 °F 82% 30.06 in 10.0 mi North 10.4 mph 24.2 mph 0.00 in Rain Light Rain
3:54 AM 39.0 °F 30.3 °F 35.1 °F 86% 30.05 in 5.0 mi North 16.1 mph 24.2 mph 0.07 in Rain Rain
4:54 AM 37.0 °F 28.1 °F 33.1 °F 86% 30.07 in 4.0 mi North 15.0 mph - 0.16 in Rain Rain
5:40 AM 37.4 °F 28.5 °F 33.8 °F 87% 30.04 in 8.0 mi North 15.0 mph 24.2 mph 0.03 in Rain Light Rain
5:54 AM 37.0 °F 28.1 °F 33.1 °F 86% 30.05 in 9.0 mi North 15.0 mph - 0.04 in Rain Light Rain
6:02 AM 37.4 °F 30.3 °F 33.8 °F 87% 30.05 in 6.0 mi North 10.4 mph - 0.01 in Rain Rain
6:54 AM 37.0 °F 30.4 °F 32.0 °F 82% 30.04 in 10.0 mi NNE 9.2 mph - 0.06 in   Overcast
7:54 AM 37.0 °F 28.9 °F 32.0 °F 82% 30.06 in 6.0 mi North 12.7 mph - 0.01 in Rain Light Rain
8:54 AM 36.0 °F 27.5 °F 32.0 °F 86% 30.13 in 3.0 mi NNW 12.7 mph 20.7 mph 0.13 in Rain Rain
9:07 AM 35.6 °F 27.5 °F 30.2 °F 81% 30.12 in 2.5 mi North 11.5 mph 19.6 mph 0.04 in Rain Heavy Rain
9:15 AM 35.6 °F 28.6 °F 30.2 °F 81% 30.10 in 2.5 mi North 9.2 mph - 0.05 in Rain Light Rain
9:22 AM 35.6 °F 27.5 °F 30.2 °F 81% 30.10 in 4.0 mi NNE 11.5 mph 16.1 mph 0.05 in Rain Light Rain
9:54 AM 35.1 °F 25.2 °F 30.9 °F 85% 30.09 in 7.0 mi North 16.1 mph 20.7 mph 0.06 in Rain Light Rain
10:54 AM 36.0 °F 28.5 °F 32.0 °F 86% 30.12 in 4.0 mi North 10.4 mph - 0.00 in   Overcast
11:54 AM 35.1 °F 25.2 °F 30.9 °F 85% 30.12 in 4.0 mi North 16.1 mph 19.6 mph 0.00 in   Overcast
12:54 PM 35.1 °F 26.4 °F 32.0 °F 89% 30.12 in 4.0 mi North 12.7 mph 21.9 mph 0.00 in   Overcast
1:06 PM 35.6 °F 26.6 °F 30.2 °F 81% 30.11 in 5.0 mi North 13.8 mph - 0.00 in   Overcast
1:16 PM 35.6 °F 26.2 °F 32.0 °F 87% 30.10 in 5.0 mi North 15.0 mph 20.7 mph 0.00 in   Overcast
1:54 PM 36.0 °F 29.0 °F 32.0 °F 86% 30.12 in 5.0 mi North 9.2 mph 20.7 mph 0.00 in   Overcast
2:54 PM 37.0 °F 28.9 °F 32.0 °F 82% 30.12 in 7.0 mi North 12.7 mph - 0.00 in   Overcast
3:23 PM 37.4 °F 30.8 °F 33.8 °F 87% 30.09 in 10.0 mi North 9.2 mph 19.6 mph N/A   Overcast
3:54 PM 37.0 °F 29.3 °F 32.0 °F 82% 30.11 in 10.0 mi North 11.5 mph - N/A   Overcast
4:54 PM 37.9 °F 29.2 °F 32.0 °F 79% 30.11 in 10.0 mi North 15.0 mph 18.4 mph N/A   Overcast
5:54 PM 39.0 °F 32.8 °F 32.0 °F 76% 30.11 in 10.0 mi North 9.2 mph - N/A   Overcast
6:12 PM 39.2 °F 32.5 °F 30.2 °F 70% 30.09 in 10.0 mi NNW 10.4 mph - N/A   Overcast
6:54 PM 39.0 °F 34.0 °F 30.9 °F 73% 30.12 in 10.0 mi NNW 6.9 mph - N/A   Overcast
7:54 PM 39.0 °F 34.8 °F 32.0 °F 76% 30.12 in 10.0 mi NW 5.8 mph - N/A   Overcast
8:54 PM 39.9 °F 36.7 °F 32.0 °F 73% 30.14 in 10.0 mi WNW 4.6 mph - N/A   Overcast
9:54 PM 39.9 °F 34.5 °F 30.9 °F 70% 30.16 in 10.0 mi NNW 8.1 mph - N/A   Overcast
10:44 PM 37.4 °F 30.8 °F 32.0 °F 81% 30.18 in 8.0 mi NNW 9.2 mph 24.2 mph 0.00 in Rain Light Rain
10:54 PM 36.0 °F 29.6 °F 32.0 °F 86% 30.19 in 7.0 mi NNW 8.1 mph 18.4 mph 0.00 in Rain Light Rain
11:19 PM 35.6 °F 28.6 °F 32.0 °F 87% 30.18 in 9.0 mi NW 9.2 mph - 0.00 in Rain Light Rain
11:49 PM 35.6 °F 29.2 °F 32.0 °F 87% 30.18 in 10.0 mi NNW 8.1 mph - 0.00 in   Overcast
11:54 PM 36.0 °F 31.1 °F 32.0 °F 86% 30.20 in 10.0 mi NW 5.8 mph - 0.00 in   Overcast